Simultaneous Nadir Overpasses (SNOs) Predictions

Prediction of SNOs between AQUA and NOAA-19 Satellite Orbit:

Table of predicted SNOs for the next 14.0 days since TLE Epoch: 2/16/2018
Index Date (AQUA) Time (AQUA) Lat,Lon (AQUA) SZA (AQUA ) Date (NOAA-19) Time (NOAA-19) Lat,Lon (NOAA-19) SZA (NOAA-19 ) Distance(km) Time Diff (sec)
1 02/18/2018 11:45:27 80.87, -35.85 94.77 02/18/2018 11:44:28 80.86, -35.77 94.79 1.55 59
2 02/18/2018 12:34:54 -80.88, 131.62 85.22 02/18/2018 12:35:31 -80.86, 131.64 85.25 1.78 37
3 02/20/2018 17:19:12 -80.86, 60.87 86.05 02/20/2018 17:18:10 -80.86, 60.94 86.03 1.47 62
4 02/20/2018 18:08:39 80.87,-131.66 93.97 02/20/2018 18:09:08 80.86,-131.68 93.95 0.57 29
5 02/22/2018 22:52:57 80.85, 157.52 93.12 02/22/2018 22:51:48 80.86, 157.41 93.17 2.25 69
6 02/22/2018 23:42:24 -80.86, -34.94 86.88 02/22/2018 23:42:49 -80.87, -34.82 86.89 2.44 25
7 02/25/2018 04:26:43 -80.86,-106.10 87.68 02/25/2018 04:25:29 -80.86,-105.96 87.66 2.56 74
8 02/25/2018 05:16:09 80.86, 61.65 92.30 02/25/2018 05:16:27 80.87, 61.81 92.28 3.22 18
9 02/27/2018 10:49:55 -80.87, 158.03 88.52 02/27/2018 10:50:08 -80.86, 158.21 88.55 3.27 13




NCC Satellite Simultaneous Nadir Overpasses (SNOs) Prediction Service
